THY1LB LTFM-LSZH

Flight info

Callsign THY1LB
Flight time 2h 20m
Altitude 40000
Route VADEN1D/35L VADEN DCT BAKLO/N0486F430 DCT XANEX DCT BESLI DCT UTEKA DCT BEDOX DCT ERKIR DCT KPT L856 NEGRA NEGRA2A
Aircraft A359/H-SDE2E3GHIJ3J4J5LM1ORWXY/LB1D1

Departure

Time 2026-05-06 12:12
Airport İstanbul Airport (LTFM)

Arrival

Time 2026-05-06 14:32
Airport Zürich Airport (LSZH)
Time Latitude Longitude Altitude Speed Heading
2026-05-06 11:45 41.26554 28.73499 317 ft 0 kts 71°
2026-05-06 12:04 41.26554 28.73498 320 ft 0 kts 71°
2026-05-06 12:04 41.26548 28.73472 317 ft 4 kts 72°
2026-05-06 12:04 41.26538 28.73439 318 ft 4 kts 58°
2026-05-06 12:05 41.26521 28.73412 319 ft 4 kts 35°
2026-05-06 12:05 41.26506 28.73401 318 ft 4 kts 11°
2026-05-06 12:05 41.26488 28.73401 319 ft 0 kts 341°
2026-05-06 12:08 41.26489 28.73401 320 ft 1 kts 341°
2026-05-06 12:09 41.26529 28.73384 318 ft 12 kts 342°
2026-05-06 12:09 41.26595 28.73334 317 ft 11 kts 305°
2026-05-06 12:09 41.26599 28.73235 319 ft 13 kts 268°
2026-05-06 12:09 41.26597 28.73094 317 ft 9 kts 269°
2026-05-06 12:10 41.26596 28.72994 316 ft 13 kts 269°
2026-05-06 12:10 41.26595 28.72888 317 ft 13 kts 269°
2026-05-06 12:10 41.26593 28.72746 317 ft 18 kts 269°
2026-05-06 12:10 41.26592 28.72589 317 ft 16 kts 269°
2026-05-06 12:11 41.26634 28.72519 317 ft 11 kts 342°
2026-05-06 12:11 41.26725 28.72516 315 ft 17 kts 359°
2026-05-06 12:11 41.27116 28.72509 306 ft 101 kts 359°
2026-05-06 12:11 41.28093 28.72477 313 ft 173 kts
2026-05-06 12:12 41.29334 28.72455 1144 ft 180 kts
2026-05-06 12:12 41.30618 28.72466 2184 ft 185 kts 359°
2026-05-06 12:12 41.31889 28.72505 3163 ft 184 kts 359°
2026-05-06 12:12 41.33162 28.72543 4125 ft 183 kts 359°
2026-05-06 12:13 41.34448 28.72570 4964 ft 186 kts 358°
2026-05-06 12:13 41.35759 28.72586 5796 ft 191 kts 358°
2026-05-06 12:13 41.37103 28.72595 6550 ft 201 kts 359°
2026-05-06 12:13 41.38519 28.72334 7276 ft 210 kts 342°
2026-05-06 12:14 41.39812 28.71362 8047 ft 220 kts 322°
2026-05-06 12:14 41.40800 28.69729 8835 ft 237 kts 302°
2026-05-06 12:14 41.41331 28.67538 9608 ft 263 kts 282°
2026-05-06 12:14 41.41364 28.65015 10445 ft 280 kts 275°
2026-05-06 12:15 41.41623 28.62407 11339 ft 287 kts 289°
2026-05-06 12:15 41.42457 28.59975 12196 ft 295 kts 309°
2026-05-06 12:15 41.44011 28.58089 12935 ft 309 kts 324°
2026-05-06 12:15 41.45625 28.56164 13864 ft 319 kts 315°
2026-05-06 12:16 41.47075 28.53863 14807 ft 327 kts 309°
2026-05-06 12:16 41.48372 28.51340 15763 ft 332 kts 305°
2026-05-06 12:16 41.49587 28.48673 16686 ft 338 kts 303°
2026-05-06 12:16 41.50744 28.45955 17626 ft 344 kts 302°
2026-05-06 12:17 41.51907 28.43118 18591 ft 349 kts 301°
2026-05-06 12:17 41.53063 28.40238 19479 ft 353 kts 301°
2026-05-06 12:17 41.54223 28.37318 20411 ft 357 kts 300°
2026-05-06 12:17 41.55372 28.34404 21299 ft 361 kts 300°
2026-05-06 12:18 41.56553 28.31399 22214 ft 365 kts 300°
2026-05-06 12:18 41.57740 28.28371 23089 ft 369 kts 300°
2026-05-06 12:18 41.58926 28.25339 23926 ft 373 kts 300°
2026-05-06 12:18 41.60139 28.22235 24662 ft 377 kts 300°
2026-05-06 12:19 41.61360 28.19105 25413 ft 380 kts 300°
2026-05-06 12:19 41.62574 28.15991 26143 ft 383 kts 300°
2026-05-06 12:19 41.63817 28.12798 26901 ft 386 kts 300°
2026-05-06 12:19 41.65066 28.09586 27636 ft 390 kts 300°
2026-05-06 12:20 41.66306 28.06394 28339 ft 393 kts 300°
2026-05-06 12:20 41.67612 28.03152 29054 ft 395 kts 303°
2026-05-06 12:20 41.69059 28.00044 29738 ft 398 kts 305°
2026-05-06 12:20 41.70573 27.96914 30365 ft 402 kts 305°
2026-05-06 12:21 41.72106 27.93752 30904 ft 405 kts 305°
2026-05-06 12:21 41.73632 27.90599 31444 ft 408 kts 305°
2026-05-06 12:21 41.75189 27.87377 31974 ft 412 kts 305°
2026-05-06 12:21 41.76751 27.84137 32526 ft 414 kts 305°
2026-05-06 12:22 41.78309 27.80904 33022 ft 417 kts 305°
2026-05-06 12:22 41.79891 27.77616 33514 ft 420 kts 305°
2026-05-06 12:22 41.81476 27.74316 34184 ft 419 kts 305°
2026-05-06 12:22 41.83054 27.71025 34754 ft 418 kts 305°
2026-05-06 12:23 41.84611 27.67777 35197 ft 419 kts 305°
2026-05-06 12:23 41.86187 27.64487 35690 ft 420 kts 305°
2026-05-06 12:23 41.87774 27.61172 36137 ft 420 kts 304°
2026-05-06 12:23 41.89357 27.57859 36587 ft 421 kts 304°
2026-05-06 12:24 41.90942 27.54539 37044 ft 421 kts 304°
2026-05-06 12:24 41.92507 27.51255 37493 ft 422 kts 304°
2026-05-06 12:24 41.94098 27.47914 37928 ft 422 kts 304°
2026-05-06 12:24 41.95675 27.44601 38353 ft 422 kts 304°
2026-05-06 12:25 41.97240 27.41307 38771 ft 422 kts 304°
2026-05-06 12:25 41.98821 27.37977 39133 ft 422 kts 304°
2026-05-06 12:25 42.00407 27.34632 39399 ft 424 kts 303°
2026-05-06 12:25 42.01985 27.31302 39694 ft 425 kts 303°
2026-05-06 12:26 42.03583 27.27923 39968 ft 426 kts 303°
2026-05-06 12:26 42.05169 27.24568 40051 ft 426 kts 303°
2026-05-06 12:26 42.08737 27.18275 40056 ft 424 kts 311°
2026-05-06 12:27 42.12661 27.12336 40056 ft 424 kts 313°
2026-05-06 12:27 42.16658 27.06405 40063 ft 436 kts 313°
2026-05-06 12:28 42.20817 27.00184 40061 ft 452 kts 312°
2026-05-06 12:28 42.25050 26.93797 40058 ft 459 kts 312°
2026-05-06 12:29 42.29299 26.87359 40056 ft 460 kts 312°
2026-05-06 12:29 42.33540 26.80918 40054 ft 460 kts 312°
2026-05-06 12:30 42.37784 26.74463 40039 ft 461 kts 312°
2026-05-06 12:30 42.42040 26.67977 40050 ft 460 kts 312°
2026-05-06 12:31 42.46295 26.61476 40050 ft 460 kts 312°
2026-05-06 12:31 42.50513 26.55019 40048 ft 460 kts 312°
2026-05-06 12:32 42.54521 26.48235 40047 ft 460 kts 303°
2026-05-06 12:32 42.57700 26.40726 40047 ft 459 kts 300°
2026-05-06 12:33 42.60718 26.33087 40044 ft 459 kts 299°
2026-05-06 12:33 42.63700 26.25443 40043 ft 459 kts 299°
2026-05-06 12:34 42.66704 26.17763 40033 ft 458 kts 299°
2026-05-06 12:34 42.69676 26.10176 40045 ft 457 kts 299°
2026-05-06 12:35 42.72676 26.02507 40031 ft 458 kts 299°
2026-05-06 12:35 42.75652 25.94880 40021 ft 459 kts 299°
2026-05-06 12:36 42.78645 25.87185 40024 ft 457 kts 299°
2026-05-06 12:36 42.81601 25.79561 40024 ft 456 kts 299°
2026-05-06 12:37 42.84543 25.71955 40020 ft 456 kts 299°
2026-05-06 12:37 42.87508 25.64269 40011 ft 456 kts 299°
2026-05-06 12:38 42.90433 25.56660 40006 ft 454 kts 299°
2026-05-06 12:38 42.93369 25.49011 40007 ft 454 kts 299°
2026-05-06 12:39 42.96287 25.41386 40004 ft 454 kts 299°
2026-05-06 12:39 42.99212 25.33719 40003 ft 454 kts 299°
2026-05-06 12:40 43.02118 25.26088 40008 ft 454 kts 299°
2026-05-06 12:40 43.05043 25.18383 40004 ft 454 kts 299°
2026-05-06 12:41 43.07935 25.10744 40010 ft 454 kts 298°
2026-05-06 12:41 43.10841 25.03048 40001 ft 453 kts 298°
2026-05-06 12:42 43.13520 24.95289 40005 ft 453 kts 294°
2026-05-06 12:42 43.15924 24.87296 39998 ft 453 kts 294°
2026-05-06 12:43 43.18267 24.79308 40002 ft 453 kts 294°
2026-05-06 12:43 43.20614 24.71276 40000 ft 452 kts 294°
2026-05-06 12:44 43.22947 24.63286 40002 ft 452 kts 294°
2026-05-06 12:44 43.25288 24.55261 40001 ft 452 kts 293°
2026-05-06 12:45 43.27610 24.47278 40004 ft 452 kts 293°
2026-05-06 12:46 43.31110 24.35193 40005 ft 452 kts 293°
2026-05-06 12:46 43.33422 24.27176 40008 ft 452 kts 293°
2026-05-06 12:47 43.35729 24.19151 39999 ft 452 kts 293°
2026-05-06 12:47 43.38035 24.11104 39997 ft 452 kts 292°
2026-05-06 12:48 43.40330 24.03074 39996 ft 452 kts 292°
2026-05-06 12:48 43.42783 23.95091 39989 ft 452 kts 295°
2026-05-06 12:49 43.45364 23.87190 39987 ft 452 kts 295°
2026-05-06 12:49 43.47910 23.79325 39998 ft 452 kts 294°
2026-05-06 12:50 43.50450 23.71351 39994 ft 453 kts 294°
2026-05-06 12:50 43.52954 23.63425 39983 ft 453 kts 294°
2026-05-06 12:51 43.55454 23.55484 39980 ft 453 kts 294°
2026-05-06 12:51 43.57538 23.48852 39987 ft 452 kts 294°
2026-05-06 12:52 43.60447 23.39567 39990 ft 452 kts 294°
2026-05-06 12:52 43.62529 23.32899 39979 ft 452 kts 294°
2026-05-06 12:53 43.65002 23.24959 39982 ft 452 kts 294°
2026-05-06 12:53 43.67491 23.16946 39980 ft 452 kts 293°
2026-05-06 12:54 43.69953 23.08993 39977 ft 452 kts 293°
2026-05-06 12:54 43.72414 23.01018 39977 ft 452 kts 293°
2026-05-06 12:55 43.74880 22.93004 39982 ft 452 kts 293°
2026-05-06 12:55 43.77330 22.85020 39975 ft 451 kts 293°
2026-05-06 12:56 43.79769 22.77042 39974 ft 451 kts 293°
2026-05-06 12:56 43.82218 22.69009 39973 ft 451 kts 293°
2026-05-06 12:57 43.84647 22.61015 39972 ft 451 kts 293°
2026-05-06 12:57 43.87084 22.52972 39968 ft 451 kts 292°
2026-05-06 12:58 43.89499 22.44975 39968 ft 451 kts 292°
2026-05-06 12:58 43.92124 22.37111 39972 ft 451 kts 297°
2026-05-06 12:59 43.95138 22.29446 39976 ft 451 kts 298°
2026-05-06 12:59 43.98192 22.21850 39964 ft 451 kts 298°
2026-05-06 13:00 44.01237 22.14271 39974 ft 451 kts 298°
2026-05-06 13:00 44.04289 22.06634 39961 ft 451 kts 298°
2026-05-06 13:01 44.07321 21.99016 39965 ft 451 kts 298°
2026-05-06 13:01 44.10342 21.91400 39983 ft 450 kts 298°
2026-05-06 13:02 44.13367 21.83753 39982 ft 450 kts 298°
2026-05-06 13:02 44.16372 21.76139 39982 ft 450 kts 298°
2026-05-06 13:03 44.19402 21.68439 39983 ft 450 kts 298°
2026-05-06 13:03 44.22383 21.60840 39968 ft 450 kts 297°
2026-05-06 13:04 44.25395 21.53148 39968 ft 450 kts 297°
2026-05-06 13:04 44.28382 21.45494 39978 ft 450 kts 297°
2026-05-06 13:05 44.31358 21.37846 39967 ft 450 kts 297°
2026-05-06 13:05 44.34354 21.30132 39978 ft 450 kts 297°
2026-05-06 13:06 44.37321 21.22467 39961 ft 449 kts 297°
2026-05-06 13:06 44.40271 21.14827 39965 ft 448 kts 297°
2026-05-06 13:07 44.43240 21.07115 39959 ft 448 kts 297°
2026-05-06 13:07 44.46178 20.99462 39959 ft 449 kts 296°
2026-05-06 13:08 44.49137 20.91734 39962 ft 449 kts 296°
2026-05-06 13:08 44.52082 20.84022 39960 ft 449 kts 296°
2026-05-06 13:09 44.55000 20.76357 39959 ft 449 kts 296°
2026-05-06 13:09 44.57950 20.68590 39958 ft 449 kts 296°
2026-05-06 13:10 44.60873 20.60870 39962 ft 449 kts 296°
2026-05-06 13:10 44.63786 20.53156 39965 ft 449 kts 296°
2026-05-06 13:11 44.66698 20.45422 39964 ft 449 kts 296°
2026-05-06 13:11 44.69610 20.37669 39962 ft 450 kts 296°
2026-05-06 13:12 44.72543 20.29834 39967 ft 451 kts 296°
2026-05-06 13:12 44.75450 20.22049 39969 ft 450 kts 295°
2026-05-06 13:13 44.78362 20.14230 39962 ft 449 kts 295°
2026-05-06 13:13 44.81243 20.06471 39955 ft 450 kts 295°
2026-05-06 13:14 44.84151 19.98613 39951 ft 450 kts 295°
2026-05-06 13:14 44.87032 19.90809 39946 ft 450 kts 295°
2026-05-06 13:15 44.89910 19.82992 39934 ft 450 kts 295°
2026-05-06 13:15 44.92785 19.75161 39929 ft 450 kts 294°
2026-05-06 13:16 44.95673 19.67272 39926 ft 450 kts 294°
2026-05-06 13:16 44.98539 19.59416 39916 ft 450 kts 294°
2026-05-06 13:17 45.01400 19.51556 39921 ft 450 kts 294°
2026-05-06 13:17 45.04251 19.43702 39918 ft 450 kts 294°
2026-05-06 13:18 45.07095 19.35839 39918 ft 451 kts 294°
2026-05-06 13:18 45.09959 19.27899 39920 ft 451 kts 294°
2026-05-06 13:19 45.12798 19.20006 39917 ft 451 kts 294°
2026-05-06 13:19 45.15645 19.12068 39916 ft 451 kts 294°
2026-05-06 13:20 45.18470 19.04170 39913 ft 451 kts 294°
2026-05-06 13:20 45.21297 18.96241 39909 ft 451 kts 294°
2026-05-06 13:21 45.24115 18.88315 39911 ft 451 kts 294°
2026-05-06 13:21 45.26935 18.80360 39910 ft 451 kts 293°
2026-05-06 13:22 45.29747 18.72404 39906 ft 453 kts 293°
2026-05-06 13:22 45.32572 18.64385 39903 ft 453 kts 293°
2026-05-06 13:23 45.35376 18.56405 39900 ft 453 kts 293°
2026-05-06 13:23 45.38178 18.48408 39903 ft 453 kts 293°
2026-05-06 13:24 45.40993 18.40347 39897 ft 454 kts 293°
2026-05-06 13:24 45.43783 18.32335 39897 ft 454 kts 293°
2026-05-06 13:25 45.46590 18.24247 39898 ft 454 kts 292°
2026-05-06 13:25 45.49362 18.16240 39905 ft 454 kts 292°
2026-05-06 13:26 45.52158 18.08137 39902 ft 454 kts 292°
2026-05-06 13:26 45.54948 18.00026 39898 ft 454 kts 292°
2026-05-06 13:27 45.57714 17.91961 39897 ft 454 kts 292°
2026-05-06 13:27 45.60487 17.83853 39912 ft 454 kts 292°
2026-05-06 13:28 45.63249 17.75750 39905 ft 455 kts 292°
2026-05-06 13:28 45.66011 17.67620 39907 ft 455 kts 292°
2026-05-06 13:29 45.68785 17.59433 39907 ft 455 kts 292°
2026-05-06 13:29 45.71534 17.51296 39905 ft 455 kts 292°
2026-05-06 13:30 45.74279 17.43144 39910 ft 456 kts 292°
2026-05-06 13:30 45.77038 17.34925 39912 ft 456 kts 292°
2026-05-06 13:31 45.79774 17.26746 39912 ft 456 kts 291°
2026-05-06 13:31 45.82498 17.18579 39909 ft 456 kts 291°
2026-05-06 13:32 45.85241 17.10328 39910 ft 457 kts 291°
2026-05-06 13:32 45.87969 17.02101 39911 ft 458 kts 291°
2026-05-06 13:33 45.90710 16.93807 39913 ft 458 kts 291°
2026-05-06 13:33 45.93421 16.85577 39916 ft 458 kts 291°
2026-05-06 13:34 45.96132 16.77318 39921 ft 459 kts 291°
2026-05-06 13:34 45.98861 16.68979 39917 ft 460 kts 291°
2026-05-06 13:35 46.01575 16.60665 39918 ft 460 kts 291°
2026-05-06 13:35 46.04298 16.52292 39924 ft 460 kts 291°
2026-05-06 13:36 46.07004 16.43944 39925 ft 460 kts 291°
2026-05-06 13:36 46.09699 16.35602 39930 ft 461 kts 291°
2026-05-06 13:37 46.12395 16.27230 39928 ft 461 kts 291°
2026-05-06 13:37 46.15103 16.18798 39927 ft 461 kts 291°
2026-05-06 13:38 46.17784 16.10420 39922 ft 461 kts 291°
2026-05-06 13:38 46.20462 16.02022 39921 ft 461 kts 291°
2026-05-06 13:39 46.23144 15.93587 39920 ft 461 kts 291°
2026-05-06 13:39 46.25808 15.85178 39918 ft 461 kts 291°
2026-05-06 13:40 46.28559 15.76783 39919 ft 463 kts 293°
2026-05-06 13:40 46.31046 15.69907 39918 ft 462 kts 294°
2026-05-06 13:41 46.34037 15.61723 39919 ft 461 kts 294°
2026-05-06 13:41 46.37008 15.53445 39916 ft 461 kts 293°
2026-05-06 13:42 46.39925 15.45204 39919 ft 461 kts 293°
2026-05-06 13:42 46.42853 15.36888 39913 ft 462 kts 293°
2026-05-06 13:43 46.45759 15.28609 39910 ft 463 kts 293°
2026-05-06 13:43 46.48669 15.20302 39913 ft 463 kts 293°
2026-05-06 13:44 46.51589 15.11940 39910 ft 463 kts 293°
2026-05-06 13:44 46.54478 15.03639 39914 ft 463 kts 292°
2026-05-06 13:45 46.57388 14.95253 39904 ft 464 kts 292°
2026-05-06 13:45 46.61735 14.82674 39902 ft 464 kts 292°
2026-05-06 13:46 46.64615 14.74306 39904 ft 464 kts 292°
2026-05-06 13:46 46.67510 14.65869 39898 ft 465 kts 292°
2026-05-06 13:47 46.70396 14.57432 39883 ft 466 kts 292°
2026-05-06 13:47 46.73270 14.49002 39887 ft 466 kts 292°
2026-05-06 13:48 46.76143 14.40545 39884 ft 466 kts 292°
2026-05-06 13:48 46.79022 14.32047 39883 ft 467 kts 292°
2026-05-06 13:49 46.81893 14.23543 39890 ft 467 kts 292°
2026-05-06 13:49 46.84751 14.15050 39875 ft 467 kts 292°
2026-05-06 13:50 46.87620 14.06499 39873 ft 467 kts 292°
2026-05-06 13:50 46.90470 13.97973 39880 ft 467 kts 292°
2026-05-06 13:51 46.93307 13.89458 39871 ft 466 kts 292°
2026-05-06 13:51 46.96155 13.80888 39879 ft 467 kts 292°
2026-05-06 13:52 46.98978 13.72361 39873 ft 466 kts 291°
2026-05-06 13:52 47.01786 13.63856 39880 ft 465 kts 291°
2026-05-06 13:53 47.04603 13.55284 39866 ft 466 kts 291°
2026-05-06 13:53 47.07395 13.46758 39867 ft 466 kts 291°
2026-05-06 13:54 47.10209 13.38150 39837 ft 466 kts 291°
2026-05-06 13:54 47.13000 13.29573 39837 ft 467 kts 291°
2026-05-06 13:55 47.15804 13.20932 39821 ft 468 kts 291°
2026-05-06 13:55 47.18596 13.12306 39809 ft 468 kts 291°
2026-05-06 13:56 47.21390 13.03640 39805 ft 468 kts 290°
2026-05-06 13:56 47.24164 12.95002 39771 ft 467 kts 290°
2026-05-06 13:57 47.26923 12.86379 39770 ft 469 kts 290°
2026-05-06 13:57 47.29712 12.77640 39766 ft 470 kts 290°
2026-05-06 13:58 47.32474 12.68964 39759 ft 471 kts 290°
2026-05-06 13:58 47.35253 12.60194 39763 ft 471 kts 290°
2026-05-06 13:59 47.38020 12.51422 39757 ft 472 kts 290°
2026-05-06 13:59 47.40780 12.42659 39744 ft 473 kts 290°
2026-05-06 14:00 47.43545 12.33840 39744 ft 474 kts 290°
2026-05-06 14:00 47.46317 12.24963 39747 ft 473 kts 290°
2026-05-06 14:01 47.49061 12.16150 39746 ft 473 kts 290°
2026-05-06 14:01 47.51797 12.07332 39734 ft 473 kts 290°
2026-05-06 14:02 47.54062 11.98235 39734 ft 466 kts 279°
2026-05-06 14:02 47.55433 11.88904 39730 ft 465 kts 277°
2026-05-06 14:03 47.56651 11.79524 39723 ft 464 kts 276°
2026-05-06 14:03 47.57853 11.70115 39736 ft 466 kts 276°
2026-05-06 14:04 47.59067 11.60660 39721 ft 466 kts 276°
2026-05-06 14:04 47.60280 11.51235 39722 ft 466 kts 276°
2026-05-06 14:05 47.61481 11.41865 39440 ft 463 kts 276°
2026-05-06 14:05 47.62084 11.37145 39008 ft 461 kts 276°
2026-05-06 14:05 47.62673 11.32508 38424 ft 460 kts 276°
2026-05-06 14:06 47.63265 11.27836 37696 ft 458 kts 276°
2026-05-06 14:06 47.63846 11.23206 37042 ft 454 kts 275°
2026-05-06 14:06 47.64424 11.18603 36399 ft 450 kts 275°
2026-05-06 14:06 47.64990 11.14096 35753 ft 447 kts 275°
2026-05-06 14:07 47.65556 11.09579 35150 ft 442 kts 274°
2026-05-06 14:07 47.66115 11.05104 34590 ft 436 kts 274°
2026-05-06 14:07 47.66663 11.00702 34096 ft 430 kts 274°
2026-05-06 14:07 47.67201 10.96373 33812 ft 420 kts 274°
2026-05-06 14:08 47.67720 10.92193 33469 ft 410 kts 273°
2026-05-06 14:08 47.68228 10.88071 33017 ft 403 kts 273°
2026-05-06 14:08 47.68726 10.83987 32480 ft 398 kts 273°
2026-05-06 14:08 47.69209 10.79994 31953 ft 394 kts 273°
2026-05-06 14:09 47.69692 10.75989 31237 ft 394 kts 273°
2026-05-06 14:09 47.70177 10.71919 30285 ft 398 kts 273°
2026-05-06 14:09 47.70658 10.67941 29707 ft 388 kts 273°
2026-05-06 14:09 47.71134 10.64015 29191 ft 382 kts 273°
2026-05-06 14:10 47.71594 10.60205 28733 ft 376 kts 273°
2026-05-06 14:10 47.72052 10.56393 28248 ft 373 kts 273°
2026-05-06 14:10 47.72507 10.52573 27795 ft 373 kts 274°
2026-05-06 14:10 47.72951 10.48814 27309 ft 373 kts 274°
2026-05-06 14:11 47.73401 10.44992 26847 ft 372 kts 274°
2026-05-06 14:11 47.73844 10.41248 26365 ft 370 kts 274°
2026-05-06 14:11 47.74282 10.37498 25883 ft 367 kts 274°
2026-05-06 14:11 47.74470 10.33740 25443 ft 361 kts 265°
2026-05-06 14:12 47.74479 10.30015 24993 ft 359 kts 264°
2026-05-06 14:12 47.74431 10.26346 24494 ft 357 kts 263°
2026-05-06 14:12 47.74350 10.22647 24006 ft 355 kts 263°
2026-05-06 14:12 47.74256 10.18973 23509 ft 354 kts 263°
2026-05-06 14:13 47.74159 10.15369 22968 ft 352 kts 263°
2026-05-06 14:13 47.74063 10.11736 22463 ft 351 kts 263°
2026-05-06 14:13 47.73970 10.08088 21965 ft 351 kts 263°
2026-05-06 14:13 47.73882 10.04512 21468 ft 349 kts 263°
2026-05-06 14:14 47.73795 10.00912 20964 ft 346 kts 263°
2026-05-06 14:14 47.73710 9.97381 20490 ft 343 kts 263°
2026-05-06 14:14 47.73624 9.93848 19992 ft 340 kts 263°
2026-05-06 14:14 47.73537 9.90330 19493 ft 338 kts 263°
2026-05-06 14:15 47.73448 9.86890 19015 ft 336 kts 263°
2026-05-06 14:15 47.73359 9.83413 18518 ft 334 kts 263°
2026-05-06 14:15 47.73273 9.80014 18027 ft 331 kts 263°
2026-05-06 14:15 47.73186 9.76612 17488 ft 327 kts 263°
2026-05-06 14:16 47.73098 9.73253 17013 ft 324 kts 262°
2026-05-06 14:16 47.73006 9.69913 16553 ft 322 kts 263°
2026-05-06 14:16 47.72914 9.66610 16061 ft 323 kts 263°
2026-05-06 14:16 47.72819 9.63259 15587 ft 323 kts 263°
2026-05-06 14:17 47.72728 9.59962 15114 ft 320 kts 263°
2026-05-06 14:17 47.72636 9.56660 14634 ft 318 kts 263°
2026-05-06 14:17 47.72547 9.53378 14162 ft 316 kts 263°
2026-05-06 14:17 47.72452 9.50136 13696 ft 314 kts 263°
2026-05-06 14:18 47.72353 9.46928 13185 ft 312 kts 262°
2026-05-06 14:18 47.72067 9.43776 12726 ft 305 kts 251°
2026-05-06 14:18 47.71212 9.40946 12273 ft 297 kts 233°
2026-05-06 14:18 47.69970 9.38511 11815 ft 292 kts 228°
2026-05-06 14:19 47.68694 9.36214 11387 ft 288 kts 228°
2026-05-06 14:19 47.67431 9.33948 10974 ft 286 kts 229°
2026-05-06 14:19 47.66170 9.31670 10669 ft 279 kts 229°
2026-05-06 14:19 47.64974 9.29503 10542 ft 264 kts 229°
2026-05-06 14:20 47.63832 9.27430 10406 ft 251 kts 229°
2026-05-06 14:20 47.62745 9.25469 10269 ft 248 kts 231°
2026-05-06 14:20 47.61661 9.23508 10025 ft 245 kts 232°
2026-05-06 14:20 47.60579 9.21545 9732 ft 244 kts 232°
2026-05-06 14:21 47.59569 9.19409 9552 ft 258 kts 243°
2026-05-06 14:21 47.58990 9.16936 9364 ft 255 kts 257°
2026-05-06 14:21 47.58649 9.14344 8804 ft 256 kts 260°
2026-05-06 14:21 47.58345 9.11724 8388 ft 257 kts 259°
2026-05-06 14:22 47.58041 9.09151 8062 ft 255 kts 259°
2026-05-06 14:22 47.57710 9.06584 7704 ft 253 kts 256°
2026-05-06 14:22 47.57029 9.04184 7385 ft 253 kts 238°
2026-05-06 14:22 47.55792 9.02385 7168 ft 247 kts 218°
2026-05-06 14:23 47.54367 9.01100 7017 ft 237 kts 214°
2026-05-06 14:23 47.52958 8.99920 6823 ft 226 kts 214°
2026-05-06 14:23 47.51624 8.98798 6539 ft 214 kts 214°
2026-05-06 14:23 47.50364 8.97731 6196 ft 202 kts 214°
2026-05-06 14:24 47.49172 8.96717 6124 ft 196 kts 215°
2026-05-06 14:24 47.48009 8.95723 6108 ft 190 kts 215°
2026-05-06 14:24 47.46876 8.94751 6086 ft 189 kts 215°
2026-05-06 14:24 47.45733 8.93775 5943 ft 188 kts 215°
2026-05-06 14:25 47.44599 8.92792 5739 ft 189 kts 215°
2026-05-06 14:25 47.43671 8.91548 5545 ft 178 kts 237°
2026-05-06 14:25 47.43292 8.89855 5343 ft 172 kts 266°
2026-05-06 14:25 47.43357 8.88109 5141 ft 166 kts 274°
2026-05-06 14:26 47.43496 8.86445 4941 ft 163 kts 275°
2026-05-06 14:26 47.43588 8.85336 4806 ft 164 kts 274°
2026-05-06 14:26 47.43721 8.83662 4672 ft 164 kts 274°
2026-05-06 14:26 47.43883 8.81546 4494 ft 145 kts 274°
2026-05-06 14:27 47.43997 8.80088 4352 ft 142 kts 274°
2026-05-06 14:27 47.44067 8.79121 4279 ft 144 kts 274°
2026-05-06 14:27 47.44172 8.77684 4141 ft 135 kts 274°
2026-05-06 14:27 47.44276 8.76305 4026 ft 134 kts 273°
2026-05-06 14:28 47.44374 8.74972 3927 ft 130 kts 272°
2026-05-06 14:28 47.44468 8.73656 3813 ft 127 kts 272°
2026-05-06 14:28 47.44560 8.72353 3629 ft 127 kts 273°
2026-05-06 14:28 47.44654 8.71070 3461 ft 126 kts 273°
2026-05-06 14:29 47.44745 8.69776 3263 ft 126 kts 272°
2026-05-06 14:29 47.44839 8.68503 3072 ft 123 kts 272°
2026-05-06 14:29 47.44928 8.67253 2900 ft 121 kts 272°
2026-05-06 14:29 47.45017 8.66025 2744 ft 121 kts 273°
2026-05-06 14:30 47.45102 8.64795 2554 ft 119 kts 272°
2026-05-06 14:30 47.45192 8.63554 2508 ft 123 kts 273°
2026-05-06 14:30 47.45272 8.62263 2258 ft 127 kts 272°
2026-05-06 14:30 47.45339 8.60965 2064 ft 127 kts 275°
2026-05-06 14:31 47.45452 8.59666 1829 ft 126 kts 278°
2026-05-06 14:31 47.45565 8.58366 1653 ft 130 kts 276°
2026-05-06 14:31 47.45662 8.57032 1448 ft 128 kts 273°
2026-05-06 14:31 47.45744 8.55832 1413 ft 90 kts 276°
2026-05-06 14:32 47.45784 8.55264 1403 ft 33 kts 275°
2026-05-06 14:32 47.45802 8.55021 1402 ft 22 kts 276°
2026-05-06 14:32 47.45829 8.54821 1412 ft 17 kts 301°
2026-05-06 14:32 47.45900 8.54773 1408 ft 9 kts 19°
2026-05-06 14:33 47.45920 8.54852 1409 ft 8 kts 92°
2026-05-06 14:33 47.45918 8.54915 1405 ft 0 kts 92°
2026-05-06 14:34 47.45918 8.54922 1404 ft 5 kts 92°
2026-05-06 14:34 47.45941 8.54985 1407 ft 7 kts 46°
2026-05-06 14:34 47.45979 8.55018 1405 ft 7 kts 34°
2026-05-06 14:35 47.45996 8.55082 1409 ft 6 kts 90°
2026-05-06 14:35 47.45990 8.55158 1401 ft 8 kts 96°
2026-05-06 14:35 47.45983 8.55252 1399 ft 10 kts 96°
2026-05-06 14:35 47.45985 8.55308 1404 ft 0 kts 76°
2026-05-06 14:36 47.45985 8.55309 1404 ft 2 kts 75°
2026-05-06 14:36 47.46001 8.55339 1412 ft 2 kts 38°
2026-05-06 14:36 47.46006 8.55342 1412 ft 2 kts 27°
2026-05-06 14:37 47.46043 8.55353 1409 ft 6 kts
2026-05-06 14:37 47.46051 8.55354 1408 ft 1 kts
2026-05-06 14:37 47.46059 8.55356 1406 ft 0 kts